TELSTAR 18V

导读

TELSTAR 18V(又称APStar 5C)是加拿大运营商Telesat运营的通信卫星,别称Telstar 18 VANTAGE,由Maxar Technologies制造,设计寿命超15年。卫星于2018年9月10日由猎鹰9号火箭发射升空,定轨东经138°地球静止轨道。它配备C/Ku波段转发器,服务跨太平洋区域通信、广播电视与互联网接入,目前仍在稳定服役中。

Basic Information
目录编号:
43611
目录名称:
TELSTAR 18V
国际标识:
2018-069A
轨道中心:
EARTH
卫星名称:
TELSTAR 18V
卫星全名:
--
卫星状态:
在轨 (已飞行2841 天)
发射日期:
2018-09-10 UTC
国别 :
加拿大 (CA)
星等 :
--
Orbit Information
数据来源 国际轨道数据 AOE轨道数据
星历时间 2026-06-20T14:38:33+0800
1天前
查看轨道信息
2026-06-21T01:00:00+0800
15小时前
查看轨道信息
半长轴 42164.784km 42164.812km
偏心率 0.0001817 0.0002022
轨道倾角 0.016° 0.012°
近地点辐角 141.163° 134.825°
升交点赤经 299.000° 309.558°
平近点角 65.953° 217.517°
近地点 35778.985km 35778.149km
远地点 35794.309km 35795.201km
周期 1436.100分钟 1436.101分钟
每日圈数 1.002716 1.002715
Detailed Information
使用方式:
暂无
2D Orbit Map
3D Orbit Map
Orbit Altitude Analysis Chart
Orbit Inclination Analysis Chart
Orbit Comprehensive Analysis Chart
View Comprehensive Chart